Stations météo

réclame
Mon MeteoGroup
Celle, Allemagne (10343): Température de l'air & dewpoint: 17.05.2018 22:00:00 - 23.05.2018 22:00:00 (CEST)Celle, Allemagne (10343): Vitesse du vent & gusts: 17.05.2018 22:00:00 - 23.05.2018 22:00:00 (CEST)Celle, Allemagne (10343): Direction du vent: 17.05.2018 22:00:00 - 23.05.2018 22:00:00 (CEST)Celle, Allemagne (10343): reduced air pressure: 17.05.2018 22:00:00 - 23.05.2018 22:00:00 (CEST)Celle, Allemagne (10343): visibility: 17.05.2018 22:00:00 - 23.05.2018 22:00:00 (CEST)
Date & Time tt [°C] td [°C] ff [km/h] ff [knt] fx [km/h] fx [knt] dd ppp [hPa] vv [km]
23.05.2018 22:00:00 20,6 3,8 18 10 - - NE 1022,8 25
23.05.2018 21:00:00 21,8 4,8 18 10 - - NE 1022,1 25
23.05.2018 20:00:00 22,8 5,7 18 10 - - NE 1021,8 25
23.05.2018 19:00:00 23,4 5,3 22 12 - - NE 1021,6 25
23.05.2018 18:00:00 24,3 4,7 22 12 - - NE 1021,5 25
23.05.2018 17:00:00 24,6 2,5 18 10 - - ENE 1021,5 25
23.05.2018 16:00:00 24,2 4,7 22 12 - - ENE 1021,6 25
23.05.2018 15:00:00 24,3 6,1 18 10 - - ENE 1021,9 25
23.05.2018 14:00:00 23,3 4,4 18 10 - - NE 1022,1 25
23.05.2018 13:00:00 23,2 6,9 22 12 - - ENE 1021,9 25
23.05.2018 12:00:00 22,1 7,4 18 10 - - ENE 1021,7 25
23.05.2018 11:00:00 21,7 7,8 22 12 - - NE 1021,3 20
23.05.2018 10:00:00 20,8 7,3 18 10 - - E 1021,2 20
23.05.2018 09:00:00 19,1 7,4 14 8 - - E 1020,8 20
23.05.2018 08:00:00 17,4 7,9 14 8 - - E 1020,1 20
23.05.2018 07:00:00 15,0 6,7 14 8 - - ENE 1019,5 20
23.05.2018 06:00:00 14,3 6,2 11 6 - - ENE 1019,0 20
23.05.2018 05:00:00 14,5 6,1 11 6 - - NE 1018,4 20
23.05.2018 04:00:00 15,1 6,1 11 6 - - NE 1018,1 25
23.05.2018 03:00:00 15,5 5,9 11 6 - - NE 1017,8 25
23.05.2018 02:00:00 16,2 4,8 14 8 - - NE 1017,5 25
23.05.2018 01:00:00 16,4 5,2 11 6 - - NE 1016,9 25
23.05.2018 00:00:00 17,4 5,0 7 4 - - NE 1016,4 25
22.05.2018 23:00:00 19,6 4,6 11 6 - - NE 1016,1 25
22.05.2018 22:00:00 21,0 5,0 11 6 - - NE 1015,4 25
22.05.2018 21:00:00 22,4 4,9 11 6 - - ENE 1014,8 25
22.05.2018 20:00:00 23,8 5,1 14 8 - - E 1014,2 25
22.05.2018 19:00:00 24,7 4,5 18 10 - - E 1013,8 25
22.05.2018 18:00:00 24,6 4,5 11 6 - - E 1013,7 25
22.05.2018 17:00:00 24,9 4,2 11 6 - - ESE 1013,6 25
22.05.2018 16:00:00 24,3 4,5 14 8 - - E 1013,8 25
22.05.2018 15:00:00 24,5 5,0 14 8 - - E 1013,9 25
22.05.2018 14:00:00 23,7 6,1 14 8 - - ENE 1014,0 25
22.05.2018 13:00:00 23,1 6,8 18 10 - - E 1014,3 25
22.05.2018 12:00:00 22,5 6,6 22 12 - - E 1014,1 25
22.05.2018 11:00:00 21,0 6,9 18 10 - - E 1014,5 25
22.05.2018 10:00:00 19,3 7,3 18 10 - - ENE 1014,9 25
22.05.2018 09:00:00 17,1 6,9 18 10 - - E 1014,9 25
22.05.2018 08:00:00 15,5 6,2 14 8 - - E 1015,1 25
22.05.2018 07:00:00 13,5 5,9 11 6 - - ENE 1015,0 25
22.05.2018 06:00:00 12,5 5,4 11 6 - - ENE 1014,6 25
22.05.2018 05:00:00 12,9 5,3 11 6 - - ENE 1014,6 25
22.05.2018 04:00:00 13,4 5,3 11 6 - - NE 1014,7 25
22.05.2018 03:00:00 14,2 5,3 14 8 - - ENE 1015,0 25
22.05.2018 02:00:00 15,2 5,4 11 6 - - ENE 1015,2 35
22.05.2018 01:00:00 16,2 5,5 11 6 - - ENE 1015,3 35
22.05.2018 00:00:00 17,2 5,7 11 6 - - ENE 1015,7 40
21.05.2018 23:00:00 17,9 5,8 11 6 - - ENE 1015,8 40
21.05.2018 22:00:00 19,5 5,6 11 6 - - NE 1016,0 40
21.05.2018 21:00:00 21,1 5,7 18 10 - - ENE 1015,7 40
21.05.2018 20:00:00 22,8 5,2 22 12 - - E 1015,7 40
21.05.2018 19:00:00 23,4 4,8 22 12 - - ENE 1015,8 40
21.05.2018 18:00:00 24,0 4,0 22 12 - - ESE 1016,2 40
21.05.2018 17:00:00 24,2 3,4 25 14 - - ESE 1016,6 4,0
21.05.2018 16:00:00 23,8 3,4 22 12 - - ESE 1017,4 4,4
21.05.2018 15:00:00 23,2 3,7 25 14 47 25 E 1018,1 4,3
21.05.2018 14:00:00 22,4 3,6 29 16 - - E 1018,9 4,5
21.05.2018 13:00:00 21,9 4,2 25 14 50 27 E 1019,6 5
21.05.2018 12:00:00 20,8 5,5 29 16 47 25 E 1020,5 4,7
21.05.2018 11:00:00 19,8 5,6 29 16 - - ESE 1021,0 4,7
21.05.2018 10:00:00 18,3 6,4 22 12 - - ENE 1021,7 4,7
21.05.2018 09:00:00 16,1 5,6 22 12 - - E 1022,2 4,9
21.05.2018 08:00:00 14,2 5,1 18 10 - - ENE 1022,4 5
21.05.2018 07:00:00 12,1 4,4 11 6 - - ENE 1022,7 5
21.05.2018 06:00:00 11,0 3,6 14 8 - - ENE 1022,9 5
21.05.2018 05:00:00 11,5 3,1 14 8 - - ENE 1022,8 5
21.05.2018 04:00:00 12,5 2,7 14 8 - - ENE 1023,0 5
21.05.2018 03:00:00 13,4 2,6 18 10 - - ENE 1023,1 5
21.05.2018 02:00:00 14,0 2,6 11 6 - - ENE 1023,1 5
21.05.2018 01:00:00 14,2 3,0 11 6 - - ENE 1023,3 5
21.05.2018 00:00:00 15,5 3,0 11 6 - - ENE 1023,2 5
20.05.2018 23:00:00 16,7 3,4 14 8 - - NE 1023,1 5
20.05.2018 22:00:00 18,2 2,9 14 8 - - ENE 1022,9 5
20.05.2018 21:00:00 19,8 3,1 18 10 - - ENE 1022,6 5
20.05.2018 20:00:00 21,7 2,6 22 12 - - ENE 1022,3 5
20.05.2018 19:00:00 22,3 2,8 22 12 - - ENE 1022,4 4,9
20.05.2018 18:00:00 22,8 2,5 22 12 - - ENE 1022,5 4,3
20.05.2018 17:00:00 22,3 1,1 22 12 - - E 1023,2 4,6
20.05.2018 16:00:00 22,4 2,2 18 10 - - ENE 1023,6 4,7
20.05.2018 15:00:00 21,3 2,2 14 8 - - E 1024,1 4,8
20.05.2018 14:00:00 21,4 1,2 18 10 - - ENE 1024,4 5
20.05.2018 13:00:00 20,2 0,8 22 12 - - NE 1024,9 5
20.05.2018 12:00:00 18,9 0,4 18 10 - - NE 1025,5 5
20.05.2018 11:00:00 17,7 0,7 18 10 - - E 1025,6 4,7
20.05.2018 10:00:00 16,2 1,5 18 10 - - ENE 1025,6 5
20.05.2018 09:00:00 14,3 3,0 14 8 - - E 1025,6 5
20.05.2018 08:00:00 12,8 3,7 11 6 - - E 1025,4 5
20.05.2018 07:00:00 10,6 5,0 11 6 - - NE 1025,1 4,8
20.05.2018 06:00:00 9,5 5,4 7 4 - - NE 1024,9 4,4
20.05.2018 05:00:00 9,2 6,6 7 4 - - NE 1024,5 1,6
20.05.2018 04:00:00 9,7 7,5 7 4 - - ENE 1024,3 4,1
20.05.2018 03:00:00 7,8 7,0 0 0 - - N 1024,2 0,1
20.05.2018 02:00:00 8,4 7,5 0 0 - - N 1024,1 0,8
20.05.2018 01:00:00 9,1 7,7 0 0 - - N 1024,1 3,6
20.05.2018 00:00:00 10,2 8,2 0 0 - - N 1023,8 1,0
19.05.2018 23:00:00 11,3 8,7 0 0 - - N 1023,5 4,8
19.05.2018 22:00:00 13,0 8,7 0 0 - - N 1023,2 5
19.05.2018 21:00:00 16,0 8,1 4 2 - - E 1022,5 5
19.05.2018 20:00:00 17,3 7,8 7 4 - - ESE 1022,2 4,6
19.05.2018 19:00:00 17,1 7,4 11 6 - - NE 1022,1 4,6
19.05.2018 18:00:00 17,2 8,8 11 6 - - NE 1022,3 4,7
19.05.2018 17:00:00 16,5 9,4 14 8 - - ENE 1022,6 5
19.05.2018 16:00:00 17,1 8,8 11 6 - - NNE 1022,7 5
19.05.2018 15:00:00 17,0 8,3 11 6 - - E 1022,8 4,9
19.05.2018 14:00:00 16,0 7,9 7 4 - - ENE 1022,9 4,7
19.05.2018 13:00:00 15,8 8,0 7 4 - - E 1022,9 4,5
19.05.2018 12:00:00 14,8 7,4 11 6 - - NNE 1023,0 4,6
19.05.2018 11:00:00 13,6 7,7 11 6 - - N 1023,1 4,6
19.05.2018 10:00:00 13,1 7,9 7 4 - - NE 1023,2 4,5
19.05.2018 09:00:00 12,3 8,4 4 2 - - N 1022,8 4,3
19.05.2018 08:00:00 11,0 8,1 7 4 - - NNE 1022,6 4,5
19.05.2018 07:00:00 10,1 8,1 7 4 - - NNW 1022,0 3,5
19.05.2018 06:00:00 - - - - - - - - -
19.05.2018 05:00:00 10,0 8,0 4 2 - - NW 1021,6 4,3
19.05.2018 04:00:00 10,3 7,9 0 0 - - N 1021,6 4,4
19.05.2018 03:00:00 10,0 7,7 4 2 - - N 1021,8 4,4
19.05.2018 02:00:00 9,8 7,6 4 2 - - WNW 1021,6 4,4
19.05.2018 01:00:00 9,9 8,0 0 0 - - N 1021,7 4,3
19.05.2018 00:00:00 9,9 7,8 0 0 - - N 1021,6 4,3
18.05.2018 23:00:00 10,8 7,8 0 0 - - N 1021,6 4,4
18.05.2018 22:00:00 11,9 7,5 4 2 - - ENE 1021,5 4,4
18.05.2018 21:00:00 12,9 6,9 7 4 - - E 1021,0 4,6
18.05.2018 20:00:00 13,2 6,8 4 2 - - N 1020,9 17
18.05.2018 19:00:00 13,2 6,7 7 4 - - W 1020,9 17
18.05.2018 18:00:00 13,0 6,6 7 4 - - W 1021,0 17
18.05.2018 17:00:00 12,6 6,5 11 6 - - WNW 1021,2 17
18.05.2018 16:00:00 12,4 6,5 7 4 - - WNW 1021,4 15
18.05.2018 15:00:00 11,8 6,2 14 8 - - WNW 1021,3 15
18.05.2018 14:00:00 11,4 6,1 14 8 - - W 1021,4 15
18.05.2018 13:00:00 11,0 6,1 14 8 - - W 1021,6 15
18.05.2018 12:00:00 10,4 6,0 14 8 - - W 1021,4 15
18.05.2018 11:00:00 9,7 5,9 14 8 - - WSW 1021,2 15
18.05.2018 10:00:00 9,4 5,9 14 8 - - W 1020,9 15
18.05.2018 09:00:00 9,2 6,0 14 8 - - W 1020,7 15
18.05.2018 08:00:00 8,6 5,6 14 8 - - W 1020,5 12
18.05.2018 07:00:00 8,5 5,5 11 6 - - W 1020,2 12
18.05.2018 06:00:00 8,5 5,5 14 8 - - W 1019,7 12
18.05.2018 05:00:00 8,8 5,7 14 8 - - W 1019,6 15
18.05.2018 04:00:00 9,2 5,7 18 10 - - W 1019,3 15
18.05.2018 03:00:00 9,7 6,2 14 8 - - W 1019,3 15
18.05.2018 02:00:00 10,3 6,5 18 10 - - W 1019,4 15
18.05.2018 01:00:00 11,0 6,7 14 8 - - WNW 1019,4 15
18.05.2018 00:00:00 11,6 7,3 11 6 - - W 1019,4 15
17.05.2018 23:00:00 11,8 7,6 11 6 - - W 1019,4 15
17.05.2018 22:00:00 12,2 7,6 11 6 - - W 1019,3 9

tt = Température de l'air
td = dewpoint
ff = Vitesse du vent
fx = gusts
dd = Direction du vent
ppp = reduced air pressure
vv = visibility

stations d'obs. à proximité